Lapse_Rate
5.7 5.7 5.7 5.7 5.4 5.5 5.6 5.9 6.0 6.0 6.2 6.4 6.5 6.4 6.5 6.7 6.8 6.9 6.9 6.9 7.0 7.3 7.3 7.1 7.1 7.1 6.8 6.4 6.5 6.5 6.4 6.6 6.8
5.7 5.8 5.9 5.8 5.6 5.5 5.6 5.9 6.3 6.0 6.3 6.5 6.5 6.4 6.4 6.6 6.6 6.8 6.8 6.9 7.0 7.1 7.3 7.1 7.0 6.9 7.0 6.6 6.4 6.4 6.3 6.2 6.3
6.0 5.8 5.8 5.9 5.7 5.5 5.5 5.9 6.2 6.1 6.3 6.5 6.5 6.3 6.4 6.5 6.5 6.7 6.8 6.9 7.0 7.1 7.2 7.0 6.9 6.8 6.7 6.8 6.7 6.4 6.3 6.3 6.2
6.0 5.9 5.8 6.0 5.8 5.7 5.5 5.7 6.1 6.2 6.3 6.5 6.5 6.4 6.4 6.5 6.5 6.5 6.7 6.8 6.9 7.0 7.0 7.0 6.8 6.7 6.6 6.6 6.5 6.6 6.5 6.4 6.3
6.0 5.9 5.8 6.1 6.0 5.7 5.5 5.7 6.0 6.1 6.3 6.4 6.4 6.4 6.3 6.4 6.4 6.4 6.5 6.6 6.7 6.9 6.9 6.9 6.6 6.6 6.6 6.5 6.4 6.4 6.5 6.4 6.4
6.1 6.0 5.8 6.1 6.0 5.8 5.6 5.6 5.8 6.0 6.2 6.3 6.3 6.4 6.4 6.3 6.3 6.3 6.3 6.4 6.6 6.6 6.7 6.8 6.6 6.4 6.5 6.4 6.3 6.2 6.2 6.4 6.5
6.1 5.9 5.8 6.0 6.1 5.8 5.8 5.5 5.7 6.0 6.1 6.2 6.3 6.3 6.3 6.2 6.2 6.3 6.2 6.2 6.3 6.5 6.6 6.6 6.5 6.4 6.4 6.3 6.2 6.1 6.2 6.2 6.3
6.2 6.0 5.9 6.1 6.1 6.2 6.1 5.7 5.7 6.0 6.2 6.1 6.3 6.2 6.3 6.1 6.0 6.1 6.0 6.0 6.1 6.3 6.5 6.5 6.5 6.3 6.4 6.4 6.3 6.2 6.1 6.1 6.2
6.3 6.2 5.9 6.1 6.0 6.0 5.9 5.7 5.8 5.8 6.1 6.1 6.2 6.1 6.2 6.0 6.0 6.0 5.9 5.9 5.8 5.9 6.3 6.4 6.5 6.5 6.4 6.4 6.3 6.3 6.2 6.2 6.1
6.6 6.2 6.0 5.8 5.8 6.2 6.1 5.9 5.8 5.7 6.0 6.0 6.0 6.1 6.2 6.0 5.9 6.0 5.8 5.8 5.6 5.5 5.9 6.1 6.2 6.4 6.3 6.4 6.3 6.3 6.1 6.1 6.3
6.6 6.3 6.3 5.8 5.9 6.0 5.9 5.8 5.8 5.8 5.8 5.9 5.9 6.1 6.1 6.1 5.8 6.1 5.8 5.7 5.6 5.4 5.5 5.8 6.0 6.2 6.2 6.4 6.3 6.2 6.2 6.0 5.9
6.5 6.3 6.2 5.9 5.9 6.0 6.0 6.0 5.9 5.9 5.8 5.9 5.8 6.0 5.9 6.1 5.8 6.0 5.8 5.8 5.6 5.4 5.4 5.6 6.0 6.1 6.0 6.2 6.3 6.2 6.3 6.3 6.2
6.3 6.2 6.1 6.1 6.0 6.0 5.9 6.0 5.9 5.8 5.7 5.8 5.7 5.9 5.7 5.9 5.9 5.9 6.0 5.9 5.7 5.4 5.4 5.4 5.9 6.0 5.9 6.0 6.3 6.4 6.3 6.5 6.5
6.3 6.2 6.0 5.9 6.1 5.7 5.8 5.9 5.8 5.7 5.8 5.8 5.9 5.8 5.8 5.8 5.9 5.9 6.1 6.1 5.9 5.5 5.5 5.5 5.6 5.9 5.8 5.8 6.1 6.3 6.2 6.2 6.4
6.3 6.1 5.8 5.7 5.8 5.8 5.9 5.8 5.7 5.7 5.5 5.8 5.8 5.7 5.9 5.8 5.9 6.0 6.1 6.1 6.1 5.7 5.6 5.6 5.4 5.9 5.8 5.7 5.8 6.1 6.0 6.0 6.1
6.1 6.1 6.0 5.8 5.7 5.9 6.2 6.0 5.7 5.8 5.8 5.9 5.8 5.8 5.8 5.8 5.9 5.9 6.0 6.2 6.1 5.9 5.6 5.6 5.6 5.7 5.8 5.7 5.6 5.9 6.0 5.8 5.9
6.0 6.1 6.4 6.1 5.7 6.0 6.3 6.4 6.0 5.8 5.6 5.6 5.8 5.8 5.8 5.9 5.9 6.0 5.9 6.1 6.1 6.0 5.6 5.6 5.6 5.6 5.7 5.7 5.5 5.7 6.0 5.7 5.6
5.8 5.8 6.1 6.2 5.7 5.9 6.3 6.3 5.8 5.6 5.5 5.5 5.7 5.7 5.6 5.8 5.8 6.0 6.0 5.9 6.0 5.9 5.8 5.6 5.5 5.5 5.7 5.7 5.5 5.6 5.8 5.8 5.6
5.4 5.5 5.6 5.9 5.7 6.0 6.0 6.3 6.1 5.6 5.6 5.3 5.5 5.3 5.5 5.6 5.7 5.9 6.0 5.9 5.9 5.9 5.8 5.6 5.5 5.4 5.6 5.7 5.6 5.5 5.6 5.6 5.6
5.0 5.4 5.3 5.7 5.9 6.0 5.9 6.4 6.4 5.7 5.6 5.6 5.5 5.2 5.2 5.4 5.6 5.7 5.8 5.9 5.9 5.8 5.8 5.6 5.5 5.4 5.4 5.5 5.5 5.5 5.5 5.5 5.4
Wind_Speed
22 21 20 22 20 22 22 24 24 22 20 19 22 25 23 19 19 21 21 22 22 23 25 23 22 21 21 21 21 22 22 22 22
22 22 22 23 23 23 23 23 23 22 20 20 21 23 21 21 20 21 20 22 22 22 25 23 21 21 21 20 20 20 21 21 21
23 22 22 25 25 24 23 24 24 22 21 21 20 22 20 21 19 19 20 22 21 21 22 23 21 20 21 20 19 19 19 20 20
24 23 23 26 26 25 24 23 23 23 23 24 21 21 21 21 18 18 18 20 20 20 21 21 21 20 20 19 19 18 18 18 19
25 24 23 25 26 25 24 23 24 23 24 24 21 20 21 19 18 17 18 19 20 20 20 20 19 20 19 19 18 17 17 18 18
25 20 23 24 26 27 25 24 23 24 23 22 20 16 17 18 17 17 17 18 19 19 19 20 18 18 18 17 17 16 16 16 16
20 22 23 24 26 26 26 24 24 20 18 19 16 14 17 16 15 18 17 16 17 18 18 18 17 16 17 17 15 15 15 15 15
18 19 19 21 24 21 22 18 12 14 16 15 14 15 13 14 15 17 16 15 15 15 17 17 17 15 15 15 14 14 14 14 14
15 13 12 12 14 17 17 14 14 13 16 16 16 15 12 12 13 16 14 14 13 13 15 16 15 14 14 14 13 13 13 12 12
16 12 12 13 15 17 16 16 16 14 15 14 15 15 15 15 13 15 15 14 12 11 13 13 14 13 12 13 11 11 11 11 11
16 13 12 12 14 16 17 16 16 14 13 14 13 13 14 15 13 13 12 13 11 9 10 11 12 11 10 11 10 10 11 11 11
18 13 12 13 14 18 17 15 14 13 12 12 11 11 11 12 11 11 9 11 10 9 8 8 11 9 8 9 10 9 10 10 10
19 12 11 15 16 16 14 13 8 8 7 8 8 9 9 10 9 9 9 8 8 7 8 7 9 9 8 8 9 10 9 9 9
21 15 15 18 16 13 12 8 9 7 7 7 6 6 7 7 6 9 9 8 6 4 7 6 8 9 7 6 8 8 8 8 8
22 17 17 17 11 9 7 10 7 7 8 8 6 3 5 4 5 5 8 8 6 3 2 3 5 8 6 5 6 7 8 9 9
22 17 17 16 10 10 10 9 10 4 6 6 4 3 2 2 3 4 5 6 6 4 1 1 2 4 5 4 4 6 8 9 10
20 18 12 15 9 11 12 11 6 3 5 3 3 3 1 2 3 4 5 6 6 6 4 2 1 1 3 2 3 6 9 9 11
20 20 17 14 13 11 12 11 9 7 5 1 2 3 3 3 1 4 4 5 5 6 6 5 4 3 2 2 2 6 10 11 12
17 20 19 17 13 12 11 10 6 7 8 2 1 3 2 3 3 2 3 3 5 8 7 7 6 6 4 4 2 5 10 13 13
16 18 19 13 12 11 13 12 9 7 6 4 3 2 1 1 2 3 3 3 4 7 8 7 7 7 6 5 3 4 9 12 14
Wind_Direction
145 143 142 138 141 136 129 129 121 123 117 113 111 106 100 96 98 97 95 93 92 91 89 84 78 73 70 68 66 66 64 60 58
147 145 147 143 145 139 134 131 129 125 121 116 113 107 101 102 100 100 98 97 96 94 91 88 85 79 72 69 69 67 67 64 61
150 149 152 147 146 142 138 134 128 127 123 119 116 109 105 101 99 100 100 100 99 95 95 91 86 82 79 72 69 68 68 67 65
153 152 155 149 147 143 140 135 130 130 127 121 117 109 103 106 104 100 103 103 100 97 95 92 91 87 82 79 74 70 68 66 65
154 153 157 150 144 142 143 138 134 132 128 123 118 109 102 106 104 101 104 103 102 99 95 92 89 89 84 80 77 74 71 69 65
151 154 157 151 144 143 143 139 136 132 126 122 116 108 110 109 106 106 105 104 102 99 96 94 89 88 87 82 80 76 71 69 67
147 153 154 153 144 143 142 140 137 129 127 121 110 108 111 104 104 105 107 105 102 101 97 94 91 87 85 82 78 75 73 69 64
146 148 150 146 141 145 137 123 119 128 126 121 113 107 103 102 103 104 104 102 99 97 98 95 92 85 84 82 76 72 68 67 65
148 149 140 132 130 122 117 122 127 129 121 121 116 106 100 99 97 100 96 95 92 93 93 93 90 88 83 79 75 69 66 60 58
145 143 133 131 131 131 124 133 133 133 123 118 115 110 102 94 87 96 82 87 85 87 90 90 89 86 83 81 71 68 59 52 43
147 144 131 131 136 128 132 139 138 132 126 119 115 113 106 99 93 86 86 85 80 78 79 87 84 84 84 83 71 58 55 43 31
147 142 138 140 132 127 125 125 127 123 121 114 114 110 108 104 101 95 82 72 69 71 72 76 81 75 76 80 73 52 49 39 21
146 145 141 141 135 136 139 138 132 130 127 123 119 109 110 111 111 103 100 83 73 57 68 59 74 69 64 72 72 62 40 34 19
146 146 142 143 134 144 144 136 138 134 132 123 114 112 114 116 122 116 112 104 93 66 77 59 57 67 66 62 74 68 43 26 19
145 141 142 144 139 141 141 137 121 133 133 118 101 95 104 128 137 140 125 124 122 86 59 65 47 64 69 65 67 59 48 9 1
149 146 147 150 154 153 144 128 131 118 134 111 91 73 82 167 166 172 156 149 138 147 207 108 55 69 69 45 39 42 28 6 352
156 155 156 154 147 149 149 151 141 117 178 127 120 150 179 220 204 193 189 181 167 172 198 220 220 147 121 60 12 6 4 358 347
159 161 154 159 161 164 155 165 152 146 181 169 132 135 190 146 176 216 210 192 199 193 189 209 217 231 187 185 340 348 352 347 348
165 160 161 167 163 167 165 171 157 145 158 165 132 64 127 154 157 211 219 214 212 211 196 206 217 217 225 204 233 335 349 346 341
171 164 167 170 170 166 168 171 167 162 159 149 153 155 78 88 139 156 178 225 219 222 212 206 212 217 221 214 217 316 347 342 336